GFSSW_prec_pwat_102.txt.gz
Precipitable_Water
0.64 0.64 0.64 0.64 0.64 0.63 0.63 0.63 0.56 0.53 0.64 0.69 0.66 0.59 0.45 0.43 0.40 0.35 0.22 0.25 0.33 0.66 0.87 0.94 0.81 0.85 1.20 1.52 1.66 1.77 1.29 1.13 1.20 1.28 1.28 1.52 1.37 1.50 1.39 1.00 0.95 1.05 1.05 1.19 1.37
0.66 0.65 0.64 0.62 0.61 0.63 0.63 0.61 0.57 0.55 0.57 0.64 0.67 0.66 0.53 0.45 0.30 0.19 0.21 0.31 0.37 0.73 0.75 0.71 0.65 0.78 1.10 1.34 1.40 1.37 1.17 1.24 1.48 1.49 1.42 1.52 1.44 1.41 1.20 0.98 0.84 0.94 1.20 1.33 1.34
0.62 0.62 0.63 0.64 0.62 0.61 0.59 0.57 0.55 0.54 0.55 0.61 0.62 0.68 0.62 0.46 0.18 0.10 0.38 0.32 0.44 0.84 0.72 0.72 0.70 0.88 1.11 1.21 1.26 1.29 1.15 1.44 1.54 1.65 1.57 1.51 1.48 1.53 1.28 0.96 0.78 0.82 1.04 1.22 1.25
0.58 0.55 0.55 0.56 0.56 0.56 0.54 0.52 0.53 0.52 0.53 0.59 0.60 0.66 0.67 0.40 0.09 0.45 0.56 0.33 0.56 0.70 0.67 0.71 0.62 0.81 1.07 1.06 1.24 1.15 1.38 1.51 1.60 1.67 1.53 1.48 1.62 1.42 1.44 1.14 1.03 1.07 1.16 1.24 1.24
0.58 0.53 0.52 0.51 0.50 0.50 0.49 0.48 0.49 0.52 0.55 0.57 0.59 0.66 0.61 0.25 0.18 0.39 0.61 0.41 0.58 0.62 0.58 0.62 0.59 0.96 0.96 1.11 1.20 1.19 1.39 1.59 1.64 1.61 1.54 1.59 1.51 1.51 1.49 1.46 1.25 1.28 1.32 1.29 1.23
0.60 0.55 0.57 0.56 0.54 0.53 0.51 0.50 0.51 0.53 0.55 0.56 0.57 0.67 0.50 0.19 0.29 0.65 0.65 0.41 0.42 0.48 0.49 0.59 0.65 1.13 1.13 1.11 1.13 1.27 1.40 1.42 1.57 1.54 1.55 1.48 1.53 1.51 1.57 1.58 1.31 1.21 1.20 1.28 1.25
0.62 0.56 0.58 0.56 0.55 0.58 0.57 0.56 0.56 0.54 0.55 0.55 0.59 0.64 0.47 0.24 0.46 0.71 0.57 0.35 0.36 0.42 0.43 0.52 0.83 1.08 1.21 0.99 1.13 1.33 1.25 1.35 1.50 1.50 1.47 1.59 1.39 1.50 1.65 1.64 1.38 1.16 1.18 1.24 1.37
0.66 0.56 0.56 0.57 0.62 0.67 0.74 0.64 0.58 0.60 0.59 0.62 0.63 0.59 0.35 0.37 0.52 0.60 0.47 0.37 0.39 0.37 0.46 0.52 0.99 1.16 1.11 1.02 0.97 1.04 1.17 1.04 1.42 1.48 1.51 1.50 1.14 1.54 1.72 1.58 1.37 1.19 1.15 1.21 1.24
0.70 0.57 0.54 0.56 0.64 0.63 0.66 0.72 0.64 0.60 0.63 0.66 0.55 0.46 0.28 0.41 0.53 0.59 0.50 0.41 0.34 0.35 0.37 0.54 0.92 1.04 0.95 0.72 0.81 0.99 0.88 1.04 1.12 1.45 1.39 1.37 1.20 1.49 1.73 1.55 1.37 1.26 1.16 1.19 1.22
0.71 0.66 0.56 0.54 0.63 0.62 0.60 0.66 0.77 0.77 0.65 0.65 0.60 0.43 0.43 0.42 0.54 0.57 0.55 0.44 0.31 0.30 0.32 0.39 0.75 0.81 0.80 0.66 0.58 0.73 0.78 0.96 1.02 1.23 1.39 1.28 1.23 1.50 1.61 1.49 1.35 1.31 1.20 1.15 1.16
0.70 0.71 0.66 0.62 0.64 0.63 0.56 0.55 0.43 0.39 0.52 0.39 0.39 0.37 0.41 0.56 0.54 0.50 0.51 0.39 0.27 0.26 0.25 0.41 0.57 0.63 0.71 0.68 0.69 0.70 0.79 0.92 1.16 1.37 1.28 1.27 1.24 1.27 1.45 1.44 1.41 1.34 1.23 1.17 1.35
0.68 0.71 0.71 0.68 0.60 0.66 0.60 0.39 0.42 0.47 0.30 0.42 0.48 0.49 0.52 0.55 0.42 0.46 0.60 0.29 0.24 0.22 0.38 0.43 0.43 0.68 0.75 0.70 0.69 0.70 0.77 0.89 1.14 1.28 1.22 1.23 1.19 1.32 1.34 1.43 1.45 1.37 1.30 1.16 1.26
0.63 0.67 0.69 0.68 0.63 0.61 0.52 0.49 0.56 0.55 0.34 0.35 0.45 0.48 0.51 0.54 0.45 0.46 0.51 0.35 0.23 0.27 0.37 0.39 0.40 0.60 0.60 0.63 0.65 0.69 0.67 0.85 0.94 1.14 1.22 1.19 1.11 1.24 1.37 1.41 1.47 1.48 1.44 1.35 1.17
0.59 0.59 0.63 0.63 0.54 0.54 0.47 0.57 0.56 0.61 0.29 0.34 0.42 0.51 0.54 0.53 0.43 0.55 0.52 0.42 0.33 0.28 0.38 0.39 0.43 0.45 0.49 0.55 0.65 0.59 0.72 0.81 0.83 0.84 0.75 1.09 0.76 1.08 1.25 1.32 1.40 1.43 1.43 1.43 1.26
0.55 0.55 0.57 0.60 0.48 0.44 0.50 0.58 0.62 0.49 0.19 0.41 0.44 0.57 0.51 0.45 0.49 0.49 0.57 0.49 0.33 0.33 0.37 0.32 0.36 0.33 0.37 0.46 0.58 0.60 0.64 0.72 0.80 0.75 0.80 0.85 0.76 0.90 1.18 1.16 1.29 1.29 1.44 1.45 1.44
0.54 0.52 0.54 0.51 0.54 0.55 0.63 0.60 0.52 0.31 0.22 0.36 0.42 0.39 0.42 0.48 0.49 0.55 0.54 0.57 0.46 0.35 0.35 0.34 0.37 0.35 0.31 0.35 0.46 0.61 0.70 0.78 0.79 0.76 0.59 0.73 0.74 0.75 0.90 1.02 1.21 1.33 1.39 1.46 1.50
0.51 0.49 0.52 0.54 0.41 0.64 0.62 0.56 0.30 0.25 0.43 0.33 0.34 0.37 0.38 0.41 0.46 0.49 0.47 0.44 0.37 0.27 0.25 0.30 0.30 0.33 0.35 0.28 0.35 0.46 0.56 0.49 0.50 0.56 0.50 0.74 0.75 0.75 1.00 1.10 1.27 1.32 1.35 1.45 1.52
0.49 0.50 0.52 0.57 0.65 0.63 0.57 0.43 0.23 0.33 0.34 0.43 0.40 0.37 0.33 0.39 0.43 0.44 0.42 0.39 0.44 0.38 0.29 0.22 0.17 0.26 0.32 0.29 0.27 0.32 0.43 0.41 0.34 0.42 0.50 0.75 0.60 0.73 1.05 1.20 1.28 1.40 1.45 1.40 1.48
0.55 0.51 0.52 0.57 0.66 0.67 0.46 0.24 0.24 0.33 0.39 0.37 0.36 0.33 0.34 0.39 0.41 0.41 0.42 0.41 0.44 0.43 0.31 0.27 0.25 0.34 0.32 0.32 0.32 0.29 0.32 0.51 0.48 0.54 0.51 0.63 0.74 0.94 1.05 1.07 1.17 1.30 1.44 1.44 1.44
0.57 0.54 0.50 0.67 0.72 0.58 0.36 0.27 0.31 0.41 0.43 0.42 0.33 0.36 0.32 0.36 0.38 0.40 0.40 0.47 0.43 0.47 0.46 0.37 0.25 0.36 0.38 0.37 0.37 0.34 0.38 0.31 0.35 0.32 0.37 0.53 0.58 0.61 0.85 0.98 1.12 1.21 1.37 1.48 1.46
0.57 0.45 0.61 0.74 0.72 0.51 0.30 0.31 0.36 0.43 0.44 0.35 0.38 0.38 0.39 0.38 0.43 0.42 0.41 0.46 0.50 0.49 0.51 0.47 0.38 0.36 0.40 0.34 0.31 0.32 0.33 0.35 0.35 0.35 0.35 0.38 0.47 0.88 0.88 1.04 1.10 1.24 1.34 1.40 1.46
0.53 0.41 0.68 0.72 0.43 0.44 0.34 0.37 0.41 0.38 0.43 0.44 0.43 0.43 0.43 0.44 0.42 0.43 0.41 0.45 0.55 0.52 0.43 0.50 0.46 0.36 0.39 0.45 0.43 0.40 0.33 0.34 0.27 0.29 0.40 0.40 0.43 0.97 1.02 1.13 1.18 1.29 1.40 1.50 1.57
0.48 0.50 0.65 0.61 0.33 0.35 0.39 0.38 0.38 0.34 0.35 0.42 0.44 0.45 0.49 0.46 0.38 0.45 0.47 0.52 0.57 0.50 0.43 0.47 0.45 0.36 0.38 0.37 0.41 0.37 0.35 0.37 0.37 0.43 0.38 0.32 0.38 0.92 1.02 1.09 1.20 1.26 1.41 1.48 1.53
0.49 0.34 0.41 0.47 0.44 0.36 0.33 0.31 0.28 0.37 0.37 0.40 0.44 0.47 0.45 0.45 0.49 0.43 0.44 0.50 0.53 0.50 0.53 0.51 0.44 0.41 0.35 0.37 0.40 0.34 0.35 0.39 0.37 0.31 0.38 0.42 0.48 0.68 0.85 0.97 1.11 1.24 1.36 1.42 1.47
0.53 0.40 0.41 0.28 0.32 0.35 0.32 0.29 0.26 0.27 0.34 0.42 0.41 0.48 0.45 0.42 0.45 0.43 0.46 0.46 0.49 0.51 0.48 0.47 0.39 0.44 0.45 0.46 0.41 0.39 0.37 0.37 0.34 0.36 0.35 0.47 0.49 0.60 0.78 0.96 1.09 1.16 1.22 1.28 1.33
0.50 0.44 0.50 0.39 0.33 0.28 0.27 0.26 0.25 0.25 0.27 0.35 0.42 0.48 0.50 0.45 0.48 0.43 0.45 0.44 0.41 0.48 0.47 0.49 0.41 0.45 0.43 0.46 0.44 0.38 0.42 0.41 0.42 0.42 0.44 0.51 0.53 0.79 0.93 1.01 1.03 1.04 1.09 1.11 1.15
0.68 0.71 0.53 0.37 0.32 0.27 0.26 0.25 0.19 0.20 0.22 0.27 0.42 0.46 0.48 0.53 0.58 0.60 0.54 0.51 0.48 0.45 0.45 0.47 0.45 0.41 0.38 0.48 0.45 0.36 0.42 0.51 0.47 0.56 0.53 0.40 0.54 0.74 0.81 0.87 0.97 1.05 1.08 1.09 1.14

GFSSW_prec_pwat_105.txt.gz
Precipitable_Water
0.64 0.66 0.65 0.63 0.61 0.62 0.63 0.63 0.61 0.58 0.53 0.61 0.70 0.62 0.57 0.48 0.41 0.34 0.19 0.22 0.35 0.57 0.92 0.86 0.86 1.03 1.33 1.50 1.64 1.69 1.23 1.10 1.22 1.26 1.31 1.55 1.26 1.34 1.29 1.14 1.08 1.15 1.08 1.20 1.37
0.62 0.61 0.62 0.62 0.63 0.61 0.61 0.62 0.60 0.56 0.54 0.55 0.63 0.66 0.63 0.53 0.32 0.19 0.20 0.27 0.39 0.67 0.79 0.72 0.66 0.75 1.00 1.34 1.40 1.34 1.16 1.24 1.46 1.51 1.43 1.44 1.37 1.25 1.09 0.95 0.89 0.98 1.22 1.33 1.32
0.61 0.57 0.55 0.54 0.55 0.55 0.55 0.55 0.55 0.54 0.52 0.53 0.61 0.63 0.69 0.57 0.20 0.11 0.45 0.32 0.38 0.68 0.75 0.72 0.68 0.72 1.01 1.24 1.23 1.30 1.14 1.40 1.48 1.52 1.55 1.50 1.42 1.39 1.09 0.84 0.87 0.83 1.04 1.21 1.20
0.63 0.57 0.56 0.54 0.51 0.49 0.49 0.49 0.48 0.49 0.50 0.52 0.58 0.61 0.70 0.50 0.10 0.45 0.47 0.36 0.42 0.69 0.66 0.68 0.64 0.74 1.09 1.05 1.24 1.14 1.34 1.44 1.53 1.66 1.64 1.51 1.51 1.31 1.19 0.89 1.02 1.05 1.14 1.15 1.08
0.64 0.59 0.59 0.57 0.55 0.53 0.50 0.50 0.49 0.50 0.50 0.53 0.56 0.60 0.62 0.33 0.19 0.36 0.60 0.39 0.64 0.60 0.54 0.58 0.59 0.75 0.97 1.16 1.19 1.20 1.39 1.58 1.71 1.61 1.61 1.63 1.45 1.38 1.33 1.11 1.17 1.18 1.15 1.11 1.13
0.66 0.59 0.61 0.60 0.60 0.59 0.56 0.56 0.53 0.52 0.52 0.53 0.54 0.60 0.48 0.27 0.30 0.68 0.70 0.51 0.50 0.52 0.52 0.57 0.59 0.97 1.00 1.13 1.15 1.35 1.41 1.48 1.63 1.59 1.62 1.49 1.47 1.46 1.44 1.26 1.14 1.11 1.10 1.19 1.19
0.71 0.61 0.61 0.64 0.68 0.70 0.72 0.60 0.59 0.56 0.53 0.53 0.55 0.56 0.44 0.31 0.42 0.74 0.67 0.43 0.51 0.50 0.46 0.56 0.69 1.05 1.12 1.01 1.24 1.35 1.19 1.43 1.52 1.56 1.50 1.57 1.32 1.38 1.53 1.31 1.16 1.19 1.18 1.19 1.32
0.74 0.63 0.60 0.64 0.67 0.67 0.69 0.72 0.61 0.61 0.59 0.59 0.62 0.57 0.33 0.38 0.52 0.68 0.49 0.37 0.44 0.48 0.46 0.53 0.80 1.12 1.06 1.09 1.01 1.09 1.24 1.05 1.40 1.53 1.61 1.51 1.16 1.52 1.64 1.39 1.15 1.15 1.18 1.18 1.33
0.75 0.71 0.59 0.59 0.66 0.64 0.62 0.66 0.73 0.63 0.62 0.62 0.54 0.44 0.26 0.42 0.47 0.61 0.48 0.27 0.33 0.40 0.44 0.50 0.73 0.97 0.96 0.78 0.91 0.99 0.88 1.03 1.18 1.51 1.48 1.42 1.29 1.55 1.56 1.46 1.22 1.09 1.13 1.21 1.30
0.73 0.73 0.68 0.63 0.66 0.65 0.63 0.68 0.75 0.79 0.64 0.68 0.58 0.41 0.43 0.37 0.56 0.56 0.56 0.46 0.32 0.30 0.35 0.39 0.64 0.76 0.80 0.68 0.66 0.78 0.87 1.05 1.06 1.26 1.41 1.31 1.30 1.49 1.50 1.48 1.31 1.12 1.14 1.15 1.18
0.67 0.70 0.71 0.69 0.65 0.66 0.60 0.57 0.42 0.40 0.52 0.40 0.39 0.37 0.41 0.50 0.61 0.56 0.53 0.41 0.34 0.26 0.28 0.34 0.52 0.60 0.75 0.72 0.72 0.86 0.83 0.92 1.17 1.31 1.29 1.28 1.27 1.43 1.57 1.41 1.35 1.20 1.11 1.15 1.14
0.64 0.63 0.67 0.68 0.64 0.66 0.61 0.43 0.44 0.48 0.34 0.46 0.48 0.46 0.50 0.50 0.43 0.49 0.54 0.33 0.26 0.21 0.34 0.27 0.39 0.73 0.82 0.71 0.70 0.84 0.86 0.93 1.16 1.34 1.21 1.24 1.19 1.42 1.53 1.37 1.41 1.32 1.20 1.13 1.26
0.64 0.59 0.60 0.65 0.61 0.60 0.52 0.50 0.61 0.61 0.39 0.40 0.45 0.47 0.48 0.53 0.38 0.40 0.49 0.34 0.23 0.24 0.29 0.23 0.36 0.70 0.70 0.64 0.66 0.69 0.75 0.92 0.94 1.16 1.26 1.11 1.09 1.21 1.43 1.42 1.48 1.46 1.38 1.26 1.31
0.62 0.57 0.56 0.60 0.51 0.54 0.49 0.60 0.63 0.65 0.34 0.38 0.44 0.53 0.55 0.54 0.42 0.55 0.51 0.34 0.30 0.25 0.34 0.37 0.40 0.57 0.58 0.59 0.66 0.66 0.73 0.88 0.96 0.90 0.75 1.08 0.78 1.06 1.23 1.35 1.37 1.42 1.35 1.24 1.25
0.57 0.54 0.52 0.56 0.45 0.44 0.53 0.63 0.67 0.54 0.22 0.43 0.46 0.61 0.56 0.48 0.49 0.52 0.57 0.46 0.34 0.29 0.37 0.35 0.40 0.44 0.46 0.54 0.63 0.64 0.77 0.85 0.87 0.80 0.85 0.91 0.84 0.97 1.16 1.16 1.25 1.38 1.38 1.33 1.25
0.53 0.51 0.50 0.50 0.50 0.51 0.64 0.63 0.59 0.34 0.24 0.38 0.44 0.43 0.43 0.48 0.49 0.52 0.53 0.54 0.48 0.37 0.38 0.39 0.46 0.43 0.44 0.57 0.59 0.77 0.80 0.83 0.86 0.81 0.62 0.77 0.80 0.81 0.95 1.03 1.23 1.38 1.38 1.41 1.32
0.51 0.50 0.49 0.53 0.40 0.65 0.62 0.57 0.33 0.25 0.43 0.34 0.37 0.41 0.44 0.41 0.46 0.50 0.47 0.44 0.37 0.28 0.29 0.36 0.35 0.40 0.38 0.36 0.52 0.60 0.61 0.54 0.54 0.58 0.56 0.78 0.75 0.79 1.02 1.14 1.23 1.28 1.32 1.46 1.46
0.53 0.52 0.53 0.59 0.64 0.63 0.59 0.42 0.22 0.34 0.36 0.43 0.41 0.38 0.36 0.44 0.44 0.46 0.45 0.40 0.44 0.36 0.29 0.26 0.23 0.33 0.37 0.32 0.33 0.51 0.54 0.46 0.41 0.46 0.56 0.80 0.66 0.76 1.05 1.18 1.26 1.37 1.43 1.47 1.49
0.59 0.52 0.52 0.60 0.67 0.66 0.42 0.23 0.25 0.33 0.40 0.38 0.38 0.35 0.36 0.42 0.42 0.42 0.40 0.41 0.43 0.41 0.31 0.26 0.24 0.36 0.33 0.35 0.33 0.30 0.35 0.52 0.47 0.54 0.53 0.65 0.75 0.90 1.05 1.09 1.15 1.22 1.37 1.40 1.47
0.56 0.51 0.52 0.68 0.71 0.57 0.32 0.25 0.30 0.39 0.42 0.41 0.33 0.38 0.33 0.37 0.38 0.40 0.39 0.46 0.43 0.47 0.45 0.37 0.25 0.36 0.33 0.35 0.36 0.31 0.34 0.33 0.44 0.36 0.36 0.51 0.58 0.61 0.82 0.91 1.07 1.12 1.23 1.38 1.50
0.53 0.45 0.61 0.74 0.70 0.47 0.28 0.30 0.35 0.41 0.42 0.34 0.37 0.38 0.39 0.38 0.43 0.41 0.41 0.46 0.49 0.48 0.50 0.43 0.36 0.37 0.39 0.30 0.28 0.30 0.29 0.32 0.43 0.41 0.36 0.37 0.46 0.82 0.85 0.97 1.06 1.19 1.31 1.42 1.47
0.52 0.41 0.67 0.67 0.41 0.41 0.33 0.35 0.41 0.35 0.40 0.40 0.40 0.39 0.40 0.42 0.43 0.43 0.39 0.44 0.55 0.52 0.42 0.48 0.44 0.34 0.38 0.43 0.42 0.38 0.32 0.34 0.27 0.32 0.39 0.43 0.42 0.89 0.97 1.04 1.11 1.20 1.32 1.47 1.54
0.48 0.48 0.66 0.60 0.33 0.33 0.39 0.36 0.37 0.34 0.35 0.37 0.42 0.43 0.45 0.42 0.37 0.46 0.47 0.56 0.56 0.48 0.44 0.48 0.42 0.34 0.36 0.39 0.41 0.36 0.35 0.39 0.39 0.40 0.33 0.31 0.38 0.84 0.99 1.05 1.15 1.19 1.31 1.42 1.52
0.47 0.34 0.39 0.46 0.44 0.36 0.31 0.29 0.29 0.35 0.34 0.36 0.38 0.46 0.42 0.41 0.48 0.44 0.46 0.52 0.53 0.52 0.54 0.51 0.42 0.41 0.34 0.39 0.39 0.34 0.35 0.38 0.38 0.31 0.35 0.34 0.44 0.61 0.75 0.86 1.03 1.15 1.27 1.40 1.46
0.50 0.38 0.38 0.28 0.32 0.34 0.32 0.29 0.25 0.26 0.31 0.40 0.38 0.44 0.44 0.40 0.44 0.44 0.47 0.48 0.49 0.51 0.47 0.48 0.40 0.42 0.44 0.44 0.42 0.40 0.41 0.38 0.36 0.37 0.33 0.40 0.43 0.56 0.70 0.81 0.98 1.17 1.27 1.36 1.39
0.46 0.42 0.47 0.37 0.34 0.28 0.27 0.26 0.24 0.22 0.22 0.29 0.38 0.44 0.50 0.45 0.48 0.44 0.45 0.44 0.43 0.48 0.45 0.48 0.40 0.43 0.41 0.45 0.43 0.38 0.45 0.45 0.46 0.44 0.46 0.46 0.51 0.77 0.84 0.95 1.01 1.11 1.19 1.21 1.28
0.68 0.68 0.47 0.36 0.30 0.28 0.25 0.24 0.21 0.18 0.21 0.24 0.36 0.43 0.46 0.51 0.56 0.56 0.53 0.51 0.45 0.43 0.44 0.45 0.46 0.43 0.36 0.46 0.45 0.37 0.42 0.52 0.52 0.55 0.53 0.43 0.60 0.81 0.74 0.79 0.93 1.07 1.13 1.13 1.20

GFSSW_prec_pwat_111.txt.gz
Precipitable_Water
0.65 0.61 0.58 0.56 0.57 0.59 0.61 0.60 0.60 0.59 0.58 0.54 0.52 0.60 0.62 0.53 0.46 0.38 0.24 0.31 0.40 0.46 0.91 0.89 1.08 1.03 1.25 1.36 1.57 1.62 1.23 1.10 1.23 1.24 1.40 1.44 1.19 1.28 1.49 1.15 1.22 1.24 1.18 1.29 1.34
0.67 0.63 0.62 0.59 0.54 0.53 0.55 0.56 0.55 0.55 0.54 0.52 0.49 0.53 0.64 0.57 0.44 0.31 0.36 0.30 0.31 0.47 0.68 0.79 0.76 0.96 1.04 1.23 1.43 1.27 1.20 1.23 1.44 1.48 1.48 1.41 1.17 1.12 1.06 1.06 1.08 1.12 1.32 1.34 1.31
0.67 0.65 0.64 0.61 0.59 0.56 0.52 0.50 0.50 0.50 0.50 0.48 0.47 0.50 0.57 0.64 0.38 0.25 0.44 0.31 0.25 0.51 0.65 0.75 0.78 0.93 0.98 1.21 1.31 1.24 1.15 1.43 1.47 1.58 1.64 1.41 1.16 1.16 1.04 0.99 1.07 1.02 1.18 1.24 1.18
0.69 0.65 0.64 0.64 0.62 0.60 0.58 0.55 0.50 0.48 0.47 0.45 0.45 0.51 0.55 0.62 0.22 0.45 0.44 0.43 0.26 0.52 0.65 0.70 0.69 0.77 0.70 1.01 1.23 1.12 1.31 1.39 1.48 1.63 1.61 1.34 1.25 1.15 1.13 1.11 1.16 1.23 1.25 1.19 1.11
0.72 0.65 0.66 0.69 0.70 0.70 0.66 0.58 0.55 0.52 0.50 0.49 0.48 0.51 0.51 0.45 0.35 0.55 0.49 0.49 0.29 0.52 0.58 0.63 0.63 0.64 0.71 1.12 1.10 1.19 1.33 1.39 1.54 1.62 1.64 1.47 1.29 1.18 1.14 1.08 1.19 1.27 1.22 1.12 1.11
0.75 0.65 0.64 0.68 0.69 0.68 0.67 0.66 0.59 0.56 0.51 0.52 0.54 0.52 0.43 0.34 0.42 0.56 0.47 0.33 0.30 0.54 0.55 0.62 0.63 0.68 0.91 1.17 1.11 1.33 1.38 1.42 1.49 1.51 1.60 1.41 1.35 1.24 1.08 1.12 1.11 1.14 1.12 1.08 1.08
0.74 0.69 0.62 0.66 0.68 0.65 0.64 0.65 0.64 0.60 0.56 0.52 0.52 0.50 0.43 0.42 0.46 0.69 0.53 0.29 0.33 0.53 0.49 0.61 0.63 0.60 1.03 1.10 1.33 1.28 1.26 1.42 1.44 1.53 1.50 1.50 1.26 1.18 1.12 1.09 1.05 1.05 1.10 1.07 1.06
0.72 0.72 0.66 0.60 0.68 0.64 0.63 0.61 0.66 0.60 0.58 0.57 0.55 0.54 0.46 0.48 0.50 0.71 0.59 0.50 0.48 0.48 0.53 0.55 0.60 0.61 0.98 1.17 1.19 1.14 1.31 1.17 1.44 1.48 1.53 1.43 1.08 1.37 1.36 1.07 1.00 1.05 1.04 1.05 1.15
0.68 0.69 0.69 0.66 0.64 0.65 0.63 0.63 0.67 0.68 0.60 0.61 0.64 0.54 0.36 0.38 0.44 0.61 0.61 0.49 0.44 0.50 0.54 0.57 0.60 0.67 1.01 0.85 0.87 1.02 0.93 1.15 1.25 1.59 1.56 1.40 1.22 1.36 1.54 1.28 1.01 1.04 1.05 1.13 1.24
0.65 0.63 0.65 0.65 0.60 0.63 0.62 0.66 0.72 0.68 0.64 0.72 0.60 0.48 0.39 0.32 0.56 0.47 0.52 0.53 0.37 0.40 0.44 0.44 0.45 0.60 0.88 0.77 0.64 0.80 0.97 1.03 1.11 1.36 1.40 1.34 1.30 1.35 1.46 1.28 1.04 1.05 1.07 1.15 1.23
0.67 0.62 0.57 0.61 0.61 0.60 0.60 0.75 0.67 0.71 0.62 0.55 0.48 0.45 0.49 0.52 0.55 0.48 0.39 0.40 0.35 0.35 0.30 0.32 0.35 0.48 0.74 0.81 0.79 0.99 0.98 1.01 1.16 1.41 1.32 1.30 1.34 1.31 1.43 1.41 1.17 1.11 1.13 1.27 1.24
0.66 0.60 0.54 0.55 0.59 0.56 0.59 0.52 0.47 0.49 0.46 0.53 0.49 0.47 0.52 0.56 0.41 0.46 0.41 0.28 0.25 0.25 0.34 0.30 0.28 0.47 0.84 0.87 0.75 0.82 0.93 1.09 1.23 1.39 1.28 1.20 1.27 1.39 1.40 1.49 1.40 1.15 1.16 1.24 1.26
0.62 0.57 0.53 0.53 0.55 0.54 0.50 0.51 0.60 0.61 0.53 0.48 0.50 0.50 0.46 0.50 0.46 0.40 0.41 0.39 0.26 0.22 0.28 0.30 0.30 0.43 0.69 0.87 0.66 0.75 0.98 1.15 1.02 1.25 1.28 1.15 1.09 1.29 1.35 1.41 1.30 1.25 1.23 1.18 1.21
0.58 0.55 0.50 0.53 0.52 0.50 0.45 0.56 0.63 0.69 0.49 0.45 0.50 0.52 0.51 0.46 0.47 0.52 0.40 0.37 0.30 0.23 0.27 0.32 0.35 0.37 0.55 0.71 0.69 0.64 0.99 1.04 1.17 0.99 0.88 1.12 0.80 1.13 1.26 1.27 1.33 1.31 1.33 1.20 1.40
0.54 0.51 0.49 0.51 0.45 0.44 0.49 0.57 0.62 0.68 0.43 0.49 0.52 0.62 0.55 0.51 0.51 0.42 0.48 0.34 0.27 0.25 0.30 0.28 0.33 0.37 0.53 0.65 0.70 0.69 0.80 1.14 1.09 0.94 0.90 0.96 0.87 1.02 1.25 1.11 1.27 1.17 1.25 1.30 1.22
0.52 0.54 0.52 0.49 0.46 0.47 0.53 0.58 0.60 0.47 0.36 0.43 0.51 0.49 0.45 0.49 0.46 0.47 0.41 0.43 0.50 0.30 0.29 0.39 0.44 0.44 0.50 0.70 0.71 0.75 0.75 0.93 0.95 0.90 0.70 0.81 0.86 0.91 1.02 1.11 1.22 1.42 1.40 1.24 1.31
0.59 0.54 0.52 0.60 0.49 0.57 0.58 0.57 0.53 0.37 0.38 0.37 0.45 0.47 0.51 0.44 0.48 0.46 0.37 0.34 0.34 0.28 0.28 0.40 0.44 0.47 0.53 0.52 0.59 0.64 0.68 0.64 0.64 0.64 0.64 0.91 0.80 0.86 1.03 1.11 1.22 1.32 1.40 1.37 1.60
0.57 0.59 0.59 0.58 0.60 0.56 0.56 0.54 0.34 0.31 0.37 0.39 0.42 0.43 0.46 0.47 0.45 0.44 0.41 0.35 0.40 0.35 0.30 0.29 0.31 0.43 0.46 0.50 0.45 0.55 0.64 0.65 0.52 0.56 0.67 0.81 0.72 0.92 1.03 1.17 1.32 1.36 1.42 1.39 1.38
0.62 0.61 0.57 0.60 0.60 0.57 0.58 0.39 0.34 0.38 0.40 0.40 0.36 0.38 0.44 0.43 0.52 0.47 0.45 0.40 0.42 0.40 0.35 0.31 0.32 0.44 0.42 0.40 0.48 0.44 0.52 0.73 0.74 0.69 0.66 0.80 0.82 1.06 1.15 1.13 1.28 1.35 1.35 1.39 1.55
0.67 0.62 0.54 0.58 0.62 0.59 0.48 0.31 0.32 0.38 0.41 0.40 0.45 0.45 0.42 0.40 0.35 0.39 0.41 0.51 0.52 0.45 0.47 0.43 0.34 0.43 0.43 0.40 0.37 0.38 0.52 0.47 0.59 0.49 0.50 0.66 0.73 0.70 0.91 1.02 1.16 1.28 1.28 1.37 1.47
0.67 0.60 0.51 0.55 0.61 0.58 0.39 0.32 0.33 0.34 0.40 0.40 0.37 0.34 0.44 0.44 0.40 0.43 0.49 0.53 0.46 0.47 0.44 0.44 0.38 0.38 0.39 0.34 0.31 0.30 0.31 0.43 0.52 0.52 0.49 0.53 0.66 1.08 0.84 0.97 1.06 1.22 1.37 1.43 1.47
0.69 0.56 0.48 0.61 0.49 0.42 0.37 0.38 0.37 0.33 0.40 0.38 0.38 0.42 0.41 0.42 0.41 0.42 0.45 0.54 0.53 0.51 0.43 0.39 0.41 0.32 0.40 0.40 0.36 0.33 0.30 0.32 0.30 0.38 0.43 0.46 0.55 1.04 1.14 1.06 1.12 1.22 1.30 1.42 1.50
0.67 0.47 0.48 0.63 0.44 0.35 0.32 0.32 0.33 0.35 0.33 0.34 0.42 0.41 0.42 0.43 0.38 0.46 0.51 0.59 0.49 0.45 0.52 0.55 0.37 0.34 0.37 0.41 0.36 0.27 0.30 0.32 0.31 0.34 0.33 0.36 0.59 0.96 0.99 1.14 1.19 1.25 1.32 1.43 1.51
0.60 0.46 0.45 0.45 0.43 0.43 0.33 0.31 0.31 0.28 0.29 0.31 0.34 0.42 0.41 0.39 0.41 0.53 0.44 0.46 0.47 0.50 0.48 0.49 0.43 0.44 0.40 0.53 0.55 0.41 0.31 0.36 0.32 0.27 0.29 0.33 0.69 0.82 0.91 0.94 1.13 1.22 1.32 1.44 1.59
0.55 0.50 0.47 0.38 0.34 0.35 0.35 0.33 0.28 0.29 0.30 0.30 0.37 0.42 0.42 0.42 0.42 0.39 0.43 0.56 0.44 0.48 0.48 0.44 0.37 0.44 0.50 0.54 0.57 0.50 0.37 0.30 0.32 0.34 0.36 0.37 0.43 0.80 0.83 0.83 0.92 1.15 1.31 1.44 1.50
0.67 0.52 0.37 0.42 0.35 0.32 0.23 0.27 0.25 0.27 0.21 0.28 0.37 0.38 0.45 0.47 0.50 0.49 0.44 0.44 0.48 0.50 0.46 0.47 0.36 0.43 0.45 0.54 0.54 0.45 0.48 0.44 0.36 0.34 0.34 0.41 0.49 0.66 1.29 1.02 0.90 1.06 1.18 1.27 1.41
0.72 0.65 0.53 0.45 0.35 0.32 0.36 0.31 0.27 0.20 0.23 0.21 0.31 0.39 0.41 0.50 0.52 0.54 0.49 0.53 0.51 0.52 0.47 0.47 0.44 0.40 0.34 0.43 0.44 0.44 0.45 0.45 0.44 0.42 0.37 0.39 0.68 0.67 1.14 1.03 0.91 0.97 1.12 1.23 1.37

GFSSW_prec_pwat_114.txt.gz
Precipitable_Water
0.70 0.67 0.65 0.61 0.56 0.54 0.54 0.56 0.57 0.57 0.58 0.57 0.54 0.49 0.59 0.59 0.47 0.39 0.21 0.32 0.38 0.43 0.60 0.75 0.80 1.03 1.17 1.32 1.50 1.60 1.27 1.19 1.26 1.18 1.28 1.44 1.11 1.29 1.34 1.32 1.19 1.26 1.11 1.20 1.36
0.69 0.67 0.66 0.62 0.60 0.57 0.52 0.50 0.50 0.51 0.51 0.51 0.49 0.48 0.52 0.62 0.45 0.32 0.35 0.38 0.38 0.40 0.49 0.75 0.82 0.98 0.95 1.16 1.31 1.32 1.12 1.27 1.48 1.50 1.30 1.51 1.27 1.39 1.18 1.22 1.18 1.09 1.25 1.25 1.31
0.70 0.66 0.66 0.65 0.63 0.60 0.56 0.53 0.49 0.46 0.45 0.46 0.45 0.45 0.50 0.58 0.44 0.32 0.47 0.37 0.27 0.35 0.51 0.81 0.82 0.82 0.90 1.12 1.25 1.30 1.04 1.40 1.52 1.57 1.53 1.57 1.36 1.18 1.14 0.88 1.08 1.06 1.09 1.22 1.20
0.70 0.65 0.67 0.70 0.71 0.69 0.66 0.57 0.55 0.50 0.49 0.45 0.42 0.44 0.49 0.49 0.30 0.58 0.46 0.36 0.27 0.29 0.51 0.70 0.70 0.71 0.86 0.93 1.20 1.09 1.32 1.40 1.48 1.56 1.67 1.49 1.36 1.10 1.07 1.04 1.23 1.21 1.22 1.15 1.11
0.72 0.63 0.64 0.69 0.69 0.68 0.66 0.66 0.58 0.56 0.51 0.51 0.49 0.48 0.43 0.37 0.41 0.65 0.51 0.43 0.27 0.26 0.49 0.62 0.63 0.64 0.72 0.87 1.13 1.31 1.32 1.40 1.51 1.59 1.65 1.74 1.42 1.29 1.20 1.22 1.25 1.27 1.23 1.09 1.11
0.72 0.65 0.61 0.68 0.68 0.66 0.65 0.65 0.64 0.59 0.55 0.52 0.53 0.52 0.35 0.28 0.51 0.59 0.58 0.42 0.19 0.26 0.48 0.62 0.64 0.67 0.65 0.89 1.11 1.32 1.43 1.40 1.47 1.52 1.57 1.48 1.17 1.19 1.41 1.30 1.15 1.19 1.16 1.09 1.08
0.71 0.70 0.65 0.62 0.67 0.65 0.65 0.63 0.64 0.60 0.58 0.55 0.52 0.48 0.37 0.38 0.50 0.48 0.61 0.34 0.23 0.29 0.50 0.62 0.68 0.63 0.72 1.03 1.35 1.28 1.20 1.36 1.38 1.50 1.46 1.43 1.11 1.07 1.10 1.10 1.09 1.11 1.11 1.10 1.10
0.67 0.67 0.67 0.64 0.62 0.65 0.64 0.61 0.60 0.67 0.58 0.59 0.57 0.50 0.42 0.46 0.54 0.61 0.71 0.31 0.30 0.41 0.60 0.61 0.67 0.59 0.60 1.02 1.28 1.10 1.19 1.17 1.35 1.45 1.54 1.45 1.04 1.20 1.16 1.06 1.04 1.06 1.06 1.06 1.12
0.65 0.62 0.63 0.64 0.59 0.61 0.60 0.58 0.63 0.65 0.57 0.60 0.65 0.52 0.47 0.44 0.31 0.57 0.64 0.43 0.40 0.39 0.51 0.54 0.56 0.55 0.62 0.79 0.97 1.03 0.96 1.18 1.26 1.55 1.49 1.38 1.20 1.30 1.29 1.09 1.00 1.05 1.04 1.01 1.15
0.65 0.61 0.58 0.60 0.58 0.57 0.56 0.69 0.82 0.74 0.72 0.77 0.64 0.60 0.58 0.35 0.45 0.55 0.58 0.57 0.41 0.42 0.45 0.45 0.46 0.51 0.56 0.78 0.61 0.73 0.89 1.09 1.09 1.29 1.37 1.29 1.26 1.31 1.40 1.28 1.05 1.03 1.01 1.06 1.25
0.65 0.61 0.55 0.52 0.56 0.53 0.52 0.70 0.65 0.68 0.61 0.45 0.53 0.49 0.52 0.50 0.58 0.43 0.52 0.52 0.40 0.39 0.35 0.40 0.36 0.38 0.51 0.79 0.87 0.87 0.94 1.06 1.22 1.38 1.25 1.28 1.28 1.32 1.41 1.45 1.28 1.04 1.04 1.12 1.21
0.62 0.57 0.52 0.49 0.53 0.51 0.52 0.54 0.47 0.47 0.44 0.63 0.47 0.48 0.54 0.59 0.42 0.46 0.38 0.35 0.31 0.28 0.32 0.31 0.26 0.40 0.57 0.82 0.95 0.85 0.86 1.02 1.25 1.34 1.25 1.20 1.20 1.33 1.42 1.45 1.41 1.11 1.13 1.14 1.10
0.57 0.53 0.49 0.47 0.51 0.47 0.41 0.50 0.58 0.60 0.55 0.50 0.47 0.48 0.47 0.55 0.45 0.44 0.34 0.32 0.28 0.26 0.30 0.31 0.28 0.38 0.47 0.72 0.78 0.87 0.80 0.95 1.03 1.26 1.32 1.16 1.09 1.20 1.35 1.48 1.39 1.30 1.27 1.18 1.24
0.53 0.50 0.46 0.49 0.51 0.55 0.50 0.56 0.62 0.73 0.59 0.52 0.50 0.52 0.49 0.45 0.47 0.50 0.42 0.39 0.35 0.22 0.26 0.31 0.36 0.33 0.40 0.56 0.85 0.71 0.95 1.05 1.14 1.08 0.89 1.16 0.81 1.12 1.26 1.31 1.40 1.37 1.26 1.37 1.27
0.50 0.48 0.48 0.52 0.42 0.41 0.49 0.54 0.67 0.70 0.41 0.49 0.52 0.55 0.54 0.51 0.54 0.45 0.41 0.40 0.31 0.27 0.24 0.24 0.32 0.33 0.33 0.45 0.79 0.83 0.96 1.05 1.14 1.02 0.93 1.01 0.84 1.00 1.21 1.18 1.33 1.45 1.18 1.45 1.46
0.57 0.56 0.54 0.45 0.43 0.41 0.52 0.64 0.66 0.55 0.39 0.44 0.46 0.45 0.43 0.52 0.50 0.47 0.37 0.42 0.36 0.32 0.26 0.30 0.36 0.36 0.36 0.61 0.73 0.91 0.86 0.99 0.96 0.99 0.81 0.90 0.86 0.83 0.97 1.02 1.21 1.22 1.27 1.26 1.26
0.57 0.53 0.50 0.63 0.53 0.59 0.67 0.68 0.56 0.39 0.40 0.42 0.45 0.48 0.51 0.47 0.49 0.45 0.33 0.31 0.37 0.27 0.25 0.28 0.39 0.43 0.44 0.44 0.71 0.78 0.65 0.64 0.69 0.75 0.70 0.92 0.86 0.88 1.03 1.16 1.17 1.18 1.24 1.40 1.37
0.58 0.57 0.57 0.47 0.57 0.68 0.66 0.59 0.41 0.35 0.34 0.35 0.39 0.53 0.56 0.56 0.47 0.41 0.35 0.30 0.38 0.33 0.31 0.27 0.28 0.39 0.44 0.45 0.61 0.52 0.53 0.58 0.53 0.61 0.71 0.95 0.74 0.88 1.02 1.13 1.18 1.25 1.32 1.33 1.42
0.61 0.56 0.52 0.56 0.59 0.67 0.60 0.49 0.44 0.37 0.36 0.40 0.37 0.43 0.46 0.46 0.52 0.46 0.41 0.36 0.36 0.41 0.34 0.37 0.26 0.45 0.47 0.47 0.54 0.51 0.43 0.62 0.70 0.81 0.72 0.75 1.02 1.06 1.04 1.07 1.16 1.23 1.31 1.34 1.42
0.59 0.73 0.61 0.47 0.63 0.64 0.55 0.32 0.32 0.32 0.38 0.43 0.42 0.46 0.46 0.48 0.36 0.42 0.46 0.52 0.51 0.46 0.46 0.45 0.38 0.35 0.46 0.43 0.42 0.45 0.52 0.43 0.60 0.50 0.54 0.69 0.80 0.93 1.02 1.04 1.20 1.23 1.27 1.30 1.47
0.71 0.71 0.62 0.53 0.65 0.59 0.48 0.35 0.32 0.28 0.36 0.40 0.41 0.42 0.46 0.48 0.48 0.45 0.50 0.54 0.54 0.53 0.45 0.48 0.42 0.39 0.44 0.39 0.32 0.30 0.32 0.38 0.45 0.57 0.54 0.58 0.69 0.97 1.10 1.21 1.13 1.22 1.29 1.32 1.26
0.73 0.65 0.59 0.57 0.51 0.51 0.42 0.36 0.33 0.33 0.39 0.34 0.34 0.39 0.43 0.47 0.45 0.47 0.51 0.59 0.53 0.48 0.45 0.42 0.40 0.38 0.42 0.43 0.42 0.36 0.32 0.27 0.29 0.37 0.52 0.57 0.57 0.88 0.94 1.26 1.27 1.36 1.33 1.42 1.40
0.65 0.68 0.45 0.63 0.50 0.49 0.37 0.32 0.33 0.36 0.33 0.33 0.43 0.38 0.42 0.41 0.41 0.60 0.63 0.59 0.53 0.45 0.49 0.52 0.37 0.29 0.36 0.43 0.47 0.37 0.33 0.33 0.28 0.31 0.34 0.38 0.60 0.93 0.92 0.99 1.14 1.20 1.39 1.40 1.42
0.63 0.56 0.51 0.42 0.44 0.47 0.38 0.35 0.33 0.31 0.27 0.28 0.32 0.40 0.40 0.37 0.38 0.40 0.49 0.60 0.48 0.46 0.49 0.48 0.44 0.39 0.40 0.45 0.57 0.48 0.43 0.29 0.29 0.25 0.25 0.31 0.58 0.67 0.72 0.94 1.03 1.21 1.32 1.37 1.43
0.58 0.63 0.58 0.45 0.38 0.38 0.41 0.41 0.28 0.30 0.33 0.28 0.39 0.38 0.40 0.43 0.46 0.45 0.48 0.49 0.49 0.46 0.37 0.38 0.35 0.41 0.46 0.52 0.54 0.52 0.53 0.47 0.29 0.33 0.26 0.30 0.62 0.81 0.88 1.03 1.09 1.21 1.25 1.38 1.40
0.61 0.71 0.67 0.45 0.48 0.35 0.27 0.30 0.27 0.28 0.24 0.30 0.29 0.42 0.37 0.43 0.47 0.49 0.48 0.51 0.55 0.56 0.49 0.44 0.33 0.37 0.41 0.48 0.53 0.51 0.55 0.54 0.41 0.30 0.32 0.34 0.43 0.63 1.04 1.08 1.32 1.28 1.41 1.30 1.38
0.77 0.80 0.67 0.56 0.37 0.31 0.40 0.40 0.30 0.23 0.27 0.19 0.25 0.33 0.48 0.50 0.49 0.50 0.52 0.45 0.48 0.51 0.50 0.47 0.45 0.42 0.35 0.47 0.53 0.42 0.53 0.57 0.50 0.41 0.39 0.35 0.75 0.90 0.78 0.82 1.13 1.38 1.36 1.36 1.44

GFSSW_prec_pwat_117.txt.gz
Precipitable_Water
0.69 0.66 0.64 0.62 0.60 0.57 0.54 0.51 0.51 0.52 0.53 0.54 0.55 0.53 0.48 0.54 0.53 0.41 0.22 0.21 0.36 0.44 0.52 0.68 0.68 0.99 1.16 1.19 1.45 1.51 1.20 1.20 1.20 1.13 1.23 1.54 1.19 1.29 1.32 1.19 1.13 1.18 1.16 1.23 1.28
0.69 0.66 0.66 0.67 0.65 0.63 0.59 0.56 0.53 0.49 0.48 0.48 0.49 0.48 0.48 0.51 0.46 0.32 0.32 0.33 0.37 0.47 0.39 0.61 0.60 0.86 0.92 1.06 1.28 1.21 1.11 1.22 1.51 1.33 1.34 1.48 1.31 1.19 1.27 1.34 1.23 1.10 1.27 1.27 1.38
0.69 0.64 0.67 0.70 0.69 0.68 0.67 0.60 0.57 0.54 0.50 0.46 0.44 0.44 0.47 0.51 0.37 0.37 0.52 0.34 0.39 0.41 0.38 0.62 0.83 0.90 0.85 0.99 1.19 1.20 1.04 1.35 1.51 1.39 1.49 1.38 1.42 1.39 1.26 1.24 1.15 1.01 1.08 1.26 1.34
0.71 0.64 0.65 0.68 0.68 0.67 0.66 0.65 0.61 0.57 0.53 0.51 0.47 0.43 0.46 0.43 0.26 0.56 0.51 0.47 0.38 0.29 0.36 0.59 0.73 0.68 0.75 0.85 1.18 1.10 1.21 1.33 1.46 1.59 1.52 1.53 1.56 1.46 1.28 1.19 1.22 1.11 1.18 1.18 1.10
0.71 0.64 0.61 0.66 0.67 0.66 0.66 0.65 0.64 0.60 0.57 0.53 0.52 0.50 0.41 0.30 0.35 0.61 0.52 0.43 0.34 0.23 0.31 0.53 0.64 0.65 0.67 0.88 1.08 1.12 1.21 1.39 1.43 1.54 1.56 1.57 1.63 1.38 1.26 1.25 1.27 1.13 1.18 1.10 1.04
0.68 0.68 0.63 0.62 0.66 0.65 0.66 0.65 0.63 0.62 0.58 0.56 0.54 0.53 0.34 0.20 0.56 0.61 0.61 0.43 0.28 0.24 0.28 0.55 0.65 0.70 0.67 0.73 0.83 1.14 1.41 1.37 1.42 1.54 1.58 1.47 1.50 1.42 1.26 1.41 1.43 1.17 1.12 1.05 1.09
0.65 0.65 0.65 0.61 0.60 0.64 0.63 0.60 0.60 0.65 0.57 0.57 0.54 0.50 0.32 0.27 0.49 0.55 0.60 0.52 0.28 0.19 0.28 0.58 0.72 0.66 0.65 0.69 1.13 1.23 1.17 1.34 1.35 1.50 1.48 1.40 1.28 1.08 1.34 1.36 1.15 1.07 1.04 1.07 1.13
0.64 0.62 0.63 0.63 0.58 0.60 0.58 0.55 0.59 0.65 0.58 0.58 0.58 0.50 0.29 0.53 0.54 0.50 0.56 0.48 0.27 0.24 0.33 0.62 0.73 0.68 0.59 0.89 1.07 1.22 1.21 0.95 1.35 1.43 1.48 1.43 1.06 1.19 1.35 1.33 1.01 1.04 1.02 1.09 1.21
0.64 0.61 0.58 0.60 0.58 0.53 0.54 0.62 0.71 0.74 0.65 0.63 0.62 0.64 0.43 0.54 0.36 0.36 0.61 0.42 0.24 0.30 0.46 0.61 0.62 0.60 0.56 0.48 0.64 1.05 0.93 0.96 1.21 1.50 1.45 1.33 1.14 1.19 1.25 1.20 0.96 0.98 1.00 1.10 1.15
0.66 0.63 0.58 0.52 0.53 0.51 0.57 0.66 0.81 0.86 0.78 0.77 0.70 0.59 0.57 0.44 0.40 0.49 0.67 0.52 0.33 0.31 0.39 0.46 0.45 0.48 0.51 0.51 0.50 0.91 0.94 1.07 1.08 1.28 1.41 1.30 1.26 1.37 1.34 1.23 0.98 0.98 1.00 1.04 1.09
0.63 0.59 0.54 0.49 0.49 0.49 0.51 0.61 0.59 0.59 0.62 0.48 0.47 0.47 0.50 0.55 0.58 0.48 0.53 0.58 0.47 0.37 0.30 0.40 0.34 0.34 0.49 0.63 0.69 0.97 0.93 1.03 1.20 1.36 1.24 1.23 1.28 1.28 1.31 1.30 1.11 1.16 1.03 1.03 1.05
0.57 0.54 0.51 0.45 0.47 0.48 0.52 0.46 0.50 0.49 0.42 0.61 0.56 0.49 0.49 0.53 0.47 0.43 0.50 0.48 0.38 0.31 0.37 0.35 0.29 0.39 0.54 0.66 0.78 0.93 0.90 0.88 1.15 1.30 1.26 1.20 1.20 1.33 1.35 1.35 1.33 1.25 1.05 1.02 1.09
0.52 0.51 0.47 0.43 0.47 0.46 0.49 0.49 0.59 0.64 0.52 0.57 0.55 0.46 0.45 0.50 0.45 0.44 0.36 0.39 0.33 0.30 0.30 0.28 0.29 0.36 0.47 0.49 0.60 0.93 0.83 0.91 0.97 1.17 1.29 1.15 1.06 1.17 1.33 1.38 1.46 1.49 1.43 1.12 1.15
0.50 0.49 0.45 0.45 0.49 0.59 0.48 0.59 0.70 0.75 0.50 0.48 0.45 0.50 0.47 0.51 0.49 0.51 0.36 0.38 0.33 0.26 0.29 0.30 0.36 0.34 0.41 0.45 0.56 0.78 1.02 1.14 1.03 0.99 0.88 1.14 0.80 1.09 1.25 1.26 1.39 1.48 1.52 1.21 1.17
0.55 0.55 0.52 0.52 0.44 0.40 0.44 0.60 0.71 0.69 0.34 0.50 0.47 0.53 0.59 0.50 0.55 0.45 0.40 0.41 0.37 0.29 0.25 0.24 0.31 0.32 0.33 0.40 0.68 0.74 1.08 1.09 0.97 0.90 0.96 0.98 0.88 0.98 1.23 1.17 1.30 1.45 1.52 1.25 1.19
0.58 0.55 0.51 0.45 0.50 0.50 0.63 0.70 0.69 0.47 0.32 0.40 0.49 0.45 0.47 0.54 0.52 0.49 0.35 0.40 0.42 0.33 0.31 0.25 0.31 0.37 0.36 0.45 0.77 1.04 1.00 1.06 0.97 0.89 0.72 0.87 0.87 0.89 1.00 1.08 1.24 1.40 1.50 1.41 1.37
0.58 0.54 0.48 0.55 0.51 0.69 0.77 0.66 0.48 0.37 0.43 0.40 0.45 0.49 0.52 0.55 0.50 0.45 0.32 0.31 0.31 0.30 0.25 0.26 0.29 0.38 0.38 0.60 0.75 0.79 0.77 0.67 0.59 0.63 0.70 0.99 0.90 0.92 1.15 1.20 1.23 1.24 1.41 1.51 1.42
0.59 0.58 0.51 0.49 0.59 0.70 0.77 0.58 0.40 0.41 0.35 0.36 0.41 0.54 0.52 0.58 0.53 0.46 0.32 0.28 0.37 0.38 0.32 0.26 0.25 0.38 0.41 0.38 0.58 0.69 0.69 0.53 0.48 0.55 0.66 0.94 0.84 0.92 1.22 1.31 1.30 1.37 1.39 1.42 1.47
0.62 0.58 0.52 0.58 0.71 0.67 0.61 0.39 0.41 0.35 0.36 0.40 0.46 0.47 0.51 0.52 0.52 0.42 0.39 0.32 0.35 0.40 0.38 0.35 0.31 0.38 0.45 0.42 0.51 0.55 0.56 0.57 0.61 0.75 0.66 0.76 0.94 1.09 1.16 1.19 1.21 1.27 1.29 1.32 1.34
0.59 0.53 0.52 0.72 0.74 0.70 0.54 0.44 0.29 0.27 0.32 0.42 0.41 0.48 0.43 0.46 0.49 0.47 0.50 0.55 0.50 0.49 0.46 0.43 0.36 0.41 0.43 0.48 0.50 0.46 0.57 0.47 0.61 0.46 0.47 0.68 0.75 0.80 1.00 1.11 1.22 1.19 1.28 1.34 1.36
0.67 0.55 0.66 0.70 0.69 0.60 0.46 0.43 0.33 0.29 0.36 0.37 0.40 0.45 0.47 0.47 0.49 0.52 0.52 0.60 0.55 0.50 0.47 0.46 0.44 0.39 0.43 0.42 0.38 0.41 0.38 0.40 0.45 0.54 0.46 0.50 0.66 0.88 0.91 1.01 1.18 1.28 1.29 1.32 1.42
0.70 0.58 0.66 0.53 0.52 0.58 0.49 0.38 0.35 0.32 0.34 0.35 0.42 0.41 0.45 0.49 0.49 0.48 0.52 0.59 0.57 0.51 0.47 0.49 0.45 0.36 0.39 0.47 0.46 0.40 0.36 0.35 0.29 0.30 0.44 0.51 0.56 0.91 0.94 1.00 1.06 1.25 1.37 1.39 1.43
0.60 0.59 0.69 0.45 0.49 0.49 0.43 0.38 0.33 0.33 0.29 0.30 0.34 0.40 0.44 0.42 0.43 0.48 0.50 0.60 0.57 0.51 0.46 0.49 0.44 0.36 0.38 0.47 0.53 0.45 0.43 0.38 0.34 0.29 0.27 0.31 0.43 0.83 0.95 0.96 0.98 1.14 1.35 1.44 1.44
0.62 0.57 0.54 0.49 0.49 0.45 0.46 0.39 0.33 0.36 0.25 0.26 0.32 0.37 0.41 0.42 0.48 0.46 0.51 0.55 0.54 0.49 0.48 0.47 0.42 0.42 0.38 0.44 0.52 0.47 0.47 0.47 0.43 0.29 0.25 0.29 0.46 0.67 0.80 0.83 1.00 1.14 1.27 1.35 1.44
0.65 0.63 0.70 0.54 0.49 0.43 0.41 0.42 0.32 0.30 0.34 0.28 0.37 0.40 0.37 0.37 0.47 0.48 0.56 0.52 0.55 0.55 0.46 0.36 0.33 0.41 0.43 0.47 0.49 0.51 0.50 0.48 0.49 0.48 0.35 0.34 0.54 0.74 0.81 0.92 1.18 1.28 1.34 1.37 1.43
0.51 0.70 0.73 0.61 0.48 0.46 0.36 0.29 0.29 0.29 0.27 0.25 0.29 0.43 0.35 0.40 0.44 0.42 0.50 0.50 0.46 0.54 0.48 0.43 0.32 0.45 0.40 0.45 0.46 0.49 0.56 0.55 0.60 0.56 0.49 0.52 0.60 0.96 1.03 1.05 1.07 1.25 1.40 1.39 1.44
0.82 0.88 0.78 0.60 0.47 0.35 0.36 0.39 0.36 0.30 0.28 0.21 0.22 0.29 0.38 0.48 0.51 0.48 0.46 0.48 0.49 0.46 0.39 0.43 0.38 0.41 0.38 0.49 0.48 0.47 0.59 0.60 0.65 0.67 0.69 0.63 0.77 0.87 0.77 0.76 0.85 1.16 1.34 1.65 1.56

GFSSW_prec_pwat_123.txt.gz
Precipitable_Water
0.65 0.66 0.68 0.68 0.68 0.68 0.67 0.65 0.60 0.57 0.53 0.48 0.45 0.47 0.48 0.47 0.42 0.39 0.23 0.21 0.28 0.50 0.67 0.64 0.96 1.03 1.11 1.19 1.54 1.65 1.19 1.10 1.16 1.22 1.23 1.42 1.15 1.29 1.33 1.14 1.09 1.13 1.04 1.26 1.54
0.65 0.63 0.67 0.68 0.67 0.67 0.66 0.66 0.64 0.60 0.56 0.53 0.49 0.44 0.43 0.45 0.35 0.25 0.30 0.32 0.34 0.51 0.43 0.54 0.80 0.89 0.99 1.06 1.17 1.22 1.03 1.07 1.31 1.42 1.41 1.49 1.30 1.13 1.16 1.08 1.04 0.99 1.15 1.37 1.49
0.66 0.59 0.64 0.67 0.67 0.66 0.66 0.66 0.65 0.63 0.59 0.53 0.52 0.49 0.44 0.46 0.26 0.28 0.48 0.37 0.31 0.47 0.42 0.45 0.64 0.85 0.86 1.00 1.09 1.19 1.01 1.25 1.35 1.50 1.55 1.47 1.38 1.16 1.11 1.07 1.10 0.94 1.01 1.29 1.45
0.66 0.61 0.58 0.63 0.64 0.63 0.63 0.63 0.62 0.63 0.59 0.55 0.52 0.53 0.49 0.38 0.18 0.46 0.51 0.51 0.40 0.46 0.37 0.48 0.65 0.69 0.79 0.82 0.99 0.98 1.20 1.33 1.38 1.51 1.56 1.48 1.54 1.28 1.20 1.29 1.28 1.16 1.17 1.23 1.30
0.65 0.64 0.62 0.57 0.60 0.60 0.60 0.59 0.59 0.61 0.61 0.56 0.53 0.53 0.43 0.21 0.34 0.53 0.63 0.52 0.42 0.32 0.35 0.39 0.55 0.69 0.74 0.80 0.87 0.87 1.18 1.30 1.44 1.39 1.48 1.59 1.51 1.45 1.34 1.50 1.34 1.27 1.24 1.19 1.30
0.63 0.61 0.60 0.59 0.56 0.58 0.57 0.55 0.57 0.59 0.64 0.56 0.54 0.54 0.35 0.17 0.46 0.60 0.66 0.55 0.35 0.28 0.32 0.35 0.61 0.82 0.73 0.73 0.79 1.10 1.15 1.26 1.43 1.49 1.54 1.44 1.49 1.57 1.52 1.47 1.34 1.25 1.18 1.18 1.21
0.64 0.60 0.57 0.58 0.56 0.53 0.54 0.61 0.60 0.64 0.69 0.61 0.56 0.54 0.29 0.30 0.60 0.55 0.58 0.55 0.43 0.29 0.23 0.37 0.69 0.75 0.68 0.75 1.14 1.04 0.96 1.14 1.32 1.45 1.44 1.48 1.32 1.38 1.58 1.46 1.21 1.22 1.23 1.20 1.21
0.64 0.61 0.57 0.53 0.53 0.51 0.57 0.61 0.61 0.67 0.73 0.68 0.67 0.64 0.32 0.46 0.56 0.48 0.53 0.54 0.49 0.32 0.30 0.42 0.64 0.75 0.66 1.08 1.02 0.85 0.93 0.84 1.34 1.41 1.42 1.44 1.08 1.44 1.61 1.42 1.28 1.26 1.21 1.15 1.21
0.62 0.59 0.54 0.50 0.50 0.52 0.56 0.58 0.66 0.73 0.74 0.73 0.66 0.56 0.37 0.64 0.50 0.47 0.47 0.45 0.35 0.29 0.25 0.43 0.62 0.63 0.61 0.71 0.63 0.71 0.58 0.87 1.10 1.39 1.34 1.35 1.13 1.48 1.59 1.38 1.29 1.16 1.11 1.11 1.27
0.56 0.53 0.49 0.46 0.45 0.53 0.54 0.57 0.70 0.76 0.77 0.77 0.69 0.47 0.46 0.42 0.52 0.48 0.41 0.46 0.28 0.25 0.28 0.45 0.52 0.52 0.49 0.48 0.36 0.55 0.63 0.87 0.98 1.24 1.29 1.18 1.23 1.43 1.54 1.40 1.17 1.09 1.07 1.07 1.18
0.50 0.48 0.46 0.45 0.45 0.51 0.50 0.50 0.46 0.45 0.59 0.41 0.40 0.39 0.43 0.50 0.52 0.49 0.49 0.45 0.38 0.28 0.28 0.43 0.41 0.39 0.40 0.46 0.53 0.63 0.70 0.80 1.08 1.21 1.10 1.12 1.19 1.36 1.53 1.53 1.24 1.24 1.02 1.07 1.11
0.48 0.48 0.47 0.46 0.46 0.53 0.59 0.44 0.50 0.56 0.42 0.52 0.53 0.48 0.50 0.53 0.39 0.44 0.54 0.43 0.38 0.29 0.35 0.36 0.33 0.43 0.47 0.48 0.55 0.69 0.74 0.89 1.10 1.20 1.18 1.13 1.07 1.30 1.45 1.44 1.34 1.28 1.08 1.03 1.22
0.53 0.52 0.47 0.47 0.53 0.56 0.54 0.56 0.67 0.65 0.45 0.45 0.51 0.48 0.44 0.47 0.39 0.41 0.47 0.44 0.34 0.33 0.34 0.30 0.33 0.46 0.45 0.46 0.59 0.69 0.74 0.74 0.94 1.17 1.23 1.16 1.03 1.15 1.35 1.40 1.44 1.34 1.21 1.10 1.15
0.53 0.51 0.46 0.46 0.42 0.57 0.53 0.67 0.72 0.68 0.36 0.38 0.42 0.48 0.51 0.48 0.40 0.49 0.48 0.46 0.33 0.30 0.33 0.31 0.38 0.40 0.41 0.42 0.67 0.59 0.79 0.89 0.94 0.93 0.83 1.16 0.76 1.04 1.22 1.29 1.33 1.33 1.23 1.08 1.10
0.55 0.52 0.47 0.51 0.43 0.47 0.60 0.74 0.75 0.63 0.22 0.42 0.44 0.57 0.53 0.45 0.39 0.38 0.46 0.44 0.32 0.31 0.30 0.28 0.33 0.34 0.34 0.41 0.52 0.59 0.75 0.85 0.90 0.93 0.94 0.96 0.83 0.90 1.17 1.19 1.25 1.32 1.31 1.19 1.21
0.56 0.55 0.48 0.44 0.56 0.65 0.77 0.76 0.66 0.36 0.24 0.39 0.45 0.46 0.49 0.51 0.48 0.45 0.39 0.40 0.39 0.33 0.33 0.35 0.39 0.35 0.35 0.45 0.55 0.76 0.74 0.84 0.91 0.87 0.67 0.87 0.85 0.83 0.96 1.11 1.30 1.38 1.39 1.31 1.31
0.59 0.57 0.49 0.59 0.57 0.82 0.74 0.65 0.37 0.24 0.39 0.34 0.40 0.47 0.50 0.49 0.45 0.44 0.35 0.34 0.30 0.26 0.29 0.35 0.33 0.49 0.59 0.57 0.70 0.66 0.69 0.51 0.54 0.62 0.60 0.87 0.82 0.85 1.07 1.20 1.25 1.37 1.39 1.50 1.47
0.59 0.55 0.55 0.66 0.74 0.70 0.67 0.48 0.24 0.29 0.31 0.42 0.49 0.50 0.46 0.48 0.43 0.42 0.35 0.33 0.35 0.34 0.33 0.31 0.27 0.47 0.68 0.56 0.50 0.62 0.65 0.53 0.43 0.51 0.59 0.85 0.66 0.73 0.96 1.20 1.33 1.37 1.45 1.58 1.53
0.61 0.55 0.56 0.67 0.76 0.73 0.54 0.28 0.26 0.29 0.33 0.40 0.44 0.43 0.44 0.47 0.49 0.43 0.40 0.41 0.47 0.44 0.33 0.34 0.36 0.52 0.69 0.67 0.65 0.63 0.56 0.74 0.62 0.67 0.57 0.64 0.77 0.87 0.98 1.08 1.21 1.24 1.39 1.48 1.56
0.50 0.57 0.57 0.71 0.78 0.66 0.45 0.33 0.32 0.35 0.36 0.39 0.34 0.43 0.41 0.43 0.45 0.48 0.50 0.55 0.47 0.52 0.46 0.43 0.36 0.47 0.56 0.70 0.70 0.55 0.69 0.54 0.60 0.45 0.43 0.53 0.61 0.58 0.78 0.89 1.09 1.18 1.30 1.42 1.58
0.54 0.46 0.64 0.79 0.74 0.58 0.39 0.40 0.38 0.38 0.37 0.35 0.37 0.38 0.43 0.44 0.47 0.47 0.55 0.59 0.55 0.51 0.51 0.46 0.42 0.41 0.44 0.46 0.45 0.45 0.48 0.48 0.56 0.56 0.48 0.43 0.46 0.73 0.73 0.89 0.95 1.15 1.29 1.41 1.52
0.50 0.41 0.71 0.76 0.54 0.53 0.44 0.48 0.47 0.33 0.35 0.36 0.42 0.42 0.42 0.47 0.44 0.46 0.49 0.57 0.63 0.53 0.44 0.48 0.44 0.39 0.45 0.51 0.57 0.52 0.46 0.40 0.39 0.35 0.50 0.42 0.40 0.74 0.82 0.93 0.98 1.09 1.32 1.45 1.56
0.45 0.51 0.72 0.65 0.41 0.41 0.46 0.48 0.46 0.36 0.32 0.28 0.29 0.40 0.47 0.45 0.41 0.47 0.53 0.57 0.59 0.53 0.47 0.48 0.45 0.38 0.42 0.50 0.55 0.49 0.51 0.46 0.42 0.38 0.35 0.31 0.33 0.77 0.85 0.98 1.07 1.11 1.27 1.40 1.50
0.50 0.45 0.59 0.58 0.56 0.50 0.47 0.45 0.39 0.35 0.33 0.34 0.34 0.39 0.41 0.42 0.51 0.47 0.48 0.54 0.58 0.61 0.58 0.50 0.47 0.46 0.38 0.44 0.53 0.50 0.52 0.53 0.48 0.38 0.39 0.39 0.45 0.62 0.78 0.91 1.08 1.23 1.34 1.39 1.44
0.48 0.48 0.59 0.47 0.53 0.54 0.54 0.45 0.34 0.30 0.34 0.38 0.34 0.36 0.35 0.35 0.40 0.40 0.48 0.47 0.55 0.59 0.57 0.49 0.41 0.48 0.54 0.57 0.56 0.58 0.54 0.54 0.48 0.53 0.46 0.54 0.50 0.61 0.80 0.97 1.11 1.27 1.33 1.36 1.39
0.39 0.52 0.68 0.60 0.66 0.58 0.51 0.43 0.36 0.35 0.33 0.30 0.34 0.36 0.38 0.36 0.38 0.40 0.43 0.43 0.42 0.51 0.46 0.50 0.41 0.50 0.48 0.59 0.57 0.52 0.59 0.59 0.58 0.61 0.61 0.65 0.58 0.80 0.98 1.12 1.10 1.20 1.28 1.30 1.41
0.64 0.73 0.69 0.63 0.66 0.59 0.55 0.50 0.38 0.36 0.35 0.32 0.33 0.34 0.33 0.38 0.43 0.42 0.48 0.49 0.48 0.43 0.39 0.40 0.37 0.40 0.40 0.48 0.49 0.43 0.54 0.59 0.64 0.68 0.65 0.51 0.71 0.89 0.98 1.03 1.05 1.16 1.24 1.36 1.48